15 daagse weersverwachting Hallein (AT)

  • Overzicht
  • Per uur
  • 15 dagen
  • Extra
  • Vergelijk
  • Kaarten
  • Dagkaart
  • Meer »
  • Info
  • Statistieken
  • Directe link
    Temp 6h Neerslag Wind  
 05:11     21:09    Daglengte: 15:58 Vandaag
14:00
25°
 
2
20:00
19°
14.1 mm
1
 05:11     21:09    Daglengte: 15:58 Morgen
02:00
17°
15.7 mm
1
08:00
18°
 
0
14:00
23°
9.1 mm
1
warningclass
20:00
19°
22.5 mm
1
 05:11     21:09    Daglengte: 15:58 Zaterdag 22 Jun
02:00
16°
10.8 mm
1
08:00
18°
 
1
14:00
21°
39.9 mm
2
warningclass
20:00
19°
42.8 mm
1
 05:11     21:09    Daglengte: 15:58 Zondag 23 Jun
02:00
16°
61.6 mm
1
warningclass
08:00
17°
64.9 mm
1
Locatie info
Region: Salzburg
Latitude: 47.6815°N
Longitude: 13.0926°E
447 masl
Postcode: 5400
Temp/Neerslag /Baro Onweer/Dauwpunt
    Temp Baro 1h Neerslag Dauwpunt Wind UV Bewolking  
 05:11     21:09    Daglengte: 15:58 Vandaag
12:00
24°
1013.9 hPa
18%
14.8°
2
Windvlaag: -2.6 km/h
20%
13:00
25°
1013.3 hPa   14.8°
2
Windvlaag: -2.9 km/h
56%
14:00
25°
1012.9 hPa
26%
14.7°
2
Windvlaag: -2.9 km/h
62%
15:00
23°
1013.3 hPa 2.3 mm
80%
19.6°
2
Windvlaag: -2.1 km/h
64%
16:00
21°
1013.4 hPa 2.4 mm
82%
17.9°
2
Windvlaag: -0.6 km/h
83%
17:00
21°
1013.4 hPa 1.7 mm
82%
18.1°
1
Windvlaag: -0.9 km/h
71%
18:00
21°
1013.7 hPa 3.3 mm
82%
17.1°
1
Windvlaag: -1.2 km/h
77% warningclass
19:00
20°
1014.6 hPa 2.6 mm
82%
17.3°
1
Windvlaag: -0.7 km/h
81% warningclass
20:00
19°
1014.9 hPa 1.8 mm
82%
17.6°
1
Windvlaag: 0 km/h
77%
21:00
18°
1015.4 hPa 2.2 mm
82%
17.4°
1
Windvlaag: 0.8 km/h
78%
22:00
18°
1015.9 hPa 2.7 mm
81%
17.0°
1
Windvlaag: 0.3 km/h
80%
23:00
17°
1016.3 hPa 2.8 mm
78%
15.5°
1
Windvlaag: -0.3 km/h
45%
 05:11     21:09    Daglengte: 15:58 Morgen
00:00
17°
1016.6 hPa 4.2 mm
33%
15.3°
1
Windvlaag: -0.4 km/h
52%
01:00
16°
1016.9 hPa 3.7 mm
22%
15.0°
1
Windvlaag: 1.5 km/h
53%
02:00
17°
1017.0 hPa
58%
14.7°
1
Windvlaag: 1.6 km/h
18%
03:00
15°
1016.9 hPa
25%
13.7°
1
Windvlaag: 1.6 km/h
23%
04:00
15°
1017.1 hPa
68%
13.5°
1
Windvlaag: 1.9 km/h
17%
05:00
15°
1017.2 hPa
58%
13.1°
1
Windvlaag: 2 km/h
24%
06:00
16°
1017.5 hPa
18%
13.9°
1
Windvlaag: 1.8 km/h
15%
07:00
17°
1017.7 hPa
15%
15.5°
1
Windvlaag: 1.4 km/h
48%
08:00
18°
1018.0 hPa
15%
15.3°
0
Windvlaag: 0.7 km/h
39%
09:00
18°
1018.2 hPa 1.8 mm
69%
14.7°
1
Windvlaag: 0.7 km/h
60%
10:00
19°
1018.3 hPa 1.8 mm
77%
14.0°
1
Windvlaag: 0.9 km/h
59%
11:00
20°
1018.2 hPa 1.8 mm
76%
14.1°
1
Windvlaag: -0.6 km/h
52%
12:00
21°
1018.0 hPa 1.7 mm
78%
14.5°
1
Windvlaag: -1.1 km/h
52%
13:00
23°
1017.5 hPa
82%
14.8°
1
Windvlaag: -1.2 km/h
71%
14:00
23°
1017.4 hPa 1.9 mm
82%
15.4°
1
Windvlaag: -1.5 km/h
65% warningclass
15:00
22°
1017.4 hPa 2.4 mm
79%
16.1°
1
Windvlaag: -1.4 km/h
76% warningclass
16:00
21°
1017.4 hPa 2.6 mm
79%
16.5°
1
Windvlaag: -1.5 km/h
73%
17:00
21°
1017.2 hPa 3.7 mm
82%
15.9°
1
Windvlaag: -1.3 km/h
69%
18:00
21°
1017.3 hPa 4.0 mm
80%
15.4°
1
Windvlaag: -0.6 km/h
72%
19:00
20°
1017.8 hPa 4.1 mm
80%
16.0°
1
Windvlaag: -0.4 km/h
84%
20:00
19°
1018.1 hPa 5.7 mm
62%
15.9°
1
Windvlaag: -0.1 km/h
78%
21:00
18°
1018.5 hPa 5.5 mm
17%
15.5°
1
Windvlaag: 0.3 km/h
85%
22:00
18°
1019.0 hPa 5.2 mm
15%
16.0°
1
Windvlaag: 0.7 km/h
85%
23:00
17°
1019.1 hPa
17%
16.1°
1
Windvlaag: 0.9 km/h
68%
 05:11     21:09    Daglengte: 15:58 Zaterdag 22 Jun
00:00
17°
1019.2 hPa
15%
15.8°
1
Windvlaag: 0.8 km/h
61%
01:00
16°
1018.9 hPa
15%
14.8°
1
Windvlaag: 0.6 km/h
67%
02:00
16°
1018.6 hPa
15%
14.2°
1
Windvlaag: 0.6 km/h
59%
03:00
16°
1018.5 hPa
15%
14.0°
1
Windvlaag: 0.9 km/h
54%
04:00
15°
1018.1 hPa
15%
13.8°
1
Windvlaag: 1 km/h
39%
05:00
15°
1018.4 hPa
21%
13.3°
1
Windvlaag: 0.7 km/h
59%
06:00
16°
1018.4 hPa
21%
13.7°
1
Windvlaag: 0.1 km/h
71%
07:00
17°
1018.4 hPa
21%
14.5°
1
Windvlaag: -0.1 km/h
53%
08:00
18°
1018.2 hPa
21%
14.9°
1
Windvlaag: -0.2 km/h
72%
09:00
19°
1017.8 hPa
21%
15.5°
1
Windvlaag: -2.2 km/h
74%
10:00
19°
1017.2 hPa
25%
16.1°
1
Windvlaag: -3.6 km/h
62%
11:00
21°
1016.7 hPa 9.9 mm
32%
17.2°
1
Windvlaag: -4 km/h
61% warningclass
12:00
21°
1016.5 hPa 10.0 mm
83%
17.4°
2
Windvlaag: -4.1 km/h
83% warningclass
13:00
21°
1016.2 hPa 9.8 mm
48%
17.8°
2
Windvlaag: -4 km/h
84% warningclass
14:00
21°
1015.7 hPa 10.2 mm
87%
17.8°
2
Windvlaag: -2.1 km/h
87% warningclass
15:00
21°
1015.5 hPa 6.6 mm
100%
17.3°
1
Windvlaag: -3.6 km/h
88% warningclass
16:00
20°
1015.3 hPa 6.6 mm
99%
17.5°
1
Windvlaag: -2.9 km/h
97% warningclass
17:00
20°
1015.3 hPa 6.6 mm
99%
17.4°
1
Windvlaag: -1.8 km/h
96%
18:00
19°
1015.3 hPa 10.8 mm
98%
17.3°
1
Windvlaag: -2.4 km/h
96%
19:00
19°
1015.2 hPa
91%
17.3°
1
Windvlaag: -2.9 km/h
99%
20:00
19°
1015.3 hPa 12.3 mm
77%
17.0°
1
Windvlaag: -1 km/h
99%
21:00
18°
1015.6 hPa 12.3 mm
71%
16.8°
1
Windvlaag: -1.8 km/h
91%
22:00
18°
1016.0 hPa 12.4 mm
31%
16.1°
1
Windvlaag: -2.2 km/h
94%
23:00
17°
1016.1 hPa 7.7 mm
69%
15.8°
1
Windvlaag: -2.5 km/h
89%
 05:11     21:09    Daglengte: 15:58 Zondag 23 Jun
00:00
17°
1016.4 hPa 12.9 mm
77%
15.4°
1
Windvlaag: -1.9 km/h
89%
01:00
16°
1016.5 hPa 8.0 mm
75%
14.8°
1
Windvlaag: -1.2 km/h
90%
02:00
16°
1016.6 hPa 8.3 mm
77%
14.5°
1
Windvlaag: -0.5 km/h
93% warningclass
03:00
16°
1016.6 hPa 13.1 mm
76%
14.8°
1
Windvlaag: 6.3 km/h
86%
04:00
16°
1017.0 hPa 13.1 mm
78%
14.9°
1
Windvlaag: 5.4 km/h
99%
05:00
16°
1017.3 hPa 13.1 mm
80%
15.1°
1
Windvlaag: 4.5 km/h
96%
06:00
16°
1017.5 hPa 12.9 mm
83%
15.3°
1
Windvlaag: 4.8 km/h
91%
07:00
17°
1017.8 hPa 12.8 mm
87%
15.8°
1
Windvlaag: 4.6 km/h
92%
08:00
17°
1017.9 hPa
77%
16.1°
1
Windvlaag: 0.7 km/h
91%
09:00
18°
1018.0 hPa 38.3 mm
100%
16.6°
1
Windvlaag: 4.2 km/h
97%
10:00
18°
1018.3 hPa 38.5 mm
100%
16.8°
1
Windvlaag: 4.7 km/h
89%
11:00
18°
1018.5 hPa 38.6 mm
100%
17.1°
1
Windvlaag: 4.6 km/h
92%
Temp/Neerslag /Baro Onweer/Dauwpunt
    Temp Baro Neerslag Dauwpunt Wind Bewolking  
 05:11     21:09    Daglengte: 15:58 Vandaag
14:00
25°
1012.9 hPa   14.7°
2
62%
17:00
21°
1013.4 hPa 6.4 mm 18.1°
1
71%
20:00
19°
1014.9 hPa 7.7 mm 17.6°
1
77%
23:00
17°
1016.3 hPa 7.8 mm 15.5°
1
45%
 05:11     21:09    Daglengte: 15:58 Morgen
02:00
17°
1017.0 hPa 8.0 mm 14.7°
1
18%
05:00
15°
1017.2 hPa   13.1°
1
24%
08:00
18°
1018.0 hPa   15.3°
0
39%
11:00
20°
1018.2 hPa 5.4 mm 14.1°
1
52%
14:00
23°
1017.4 hPa 3.7 mm 15.4°
1
65% warningclass
17:00
21°
1017.2 hPa 8.7 mm 15.9°
1
69%
20:00
19°
1018.1 hPa 13.8 mm 15.9°
1
78%
23:00
17°
1019.1 hPa 10.8 mm 16.1°
1
68%
 05:11     21:09    Daglengte: 15:58 Zaterdag 22 Jun
02:00
16°
1018.6 hPa   14.2°
1
59%
05:00
15°
1018.4 hPa   13.3°
1
59%
08:00
18°
1018.2 hPa   14.9°
1
72%
11:00
21°
1016.7 hPa 9.9 mm 17.2°
1
61% warningclass
14:00
21°
1015.7 hPa 30.0 mm 17.8°
2
87% warningclass
17:00
20°
1015.3 hPa 19.7 mm 17.4°
1
96%
20:00
19°
1015.3 hPa 23.1 mm 17.0°
1
99%
23:00
17°
1016.1 hPa 32.5 mm 15.8°
1
89%
 05:11     21:09    Daglengte: 15:58 Zondag 23 Jun
02:00
16°
1016.6 hPa 29.1 mm 14.5°
1
93% warningclass
05:00
16°
1017.3 hPa 39.2 mm 15.1°
1
96%
08:00
17°
1017.9 hPa 25.7 mm 16.1°
1
91%
11:00
18°
1018.5 hPa 115.4 mm 17.1°
1
92%
14:00
19°
1019.3 hPa 116.8 mm 17.6°
2
94%
17:00
19°
1020.6 hPa 50.4 mm 17.4°
1
92%
20:00
19°
1021.3 hPa 50.5 mm 17.3°
1
92%
23:00
17°
1022.0 hPa 50.5 mm 16.0°
1
62%
 05:12     21:09    Daglengte: 15:57 Maandag 24 Jun
02:00
16°
1022.5 hPa 50.5 mm 14.8°
1
32%
05:00
17°
1022.7 hPa 50.5 mm 15.6°
1
40%
08:00
19°
1023.1 hPa 50.5 mm 16.6°
1
47%
11:00
22°
1022.8 hPa 50.5 mm 16.6°
1
62%
14:00
25°
1022.5 hPa 50.5 mm 15.6°
2
77%
17:00
24°
1022.9 hPa 50.5 mm 16.6°
1
50%
20:00
22°
1023.4 hPa 50.5 mm 17.3°
1
23%
23:00
19°
1024.0 hPa 50.5 mm 15.6°
1
11%
 05:12     21:09    Daglengte: 15:57 Dinsdag 25 Jun
02:00
17°
1024.4 hPa 50.5 mm 13.8°
1
0%
05:00
18°
1024.5 hPa 50.5 mm 14.5°
1
6%
08:00
21°
1024.6 hPa 50.5 mm 15.4°
1
12%
11:00
24°
1024.0 hPa 50.5 mm 16.9°
1
7%
14:00
28°
1023.4 hPa 50.5 mm 17.8°
2
1%
17:00
26°
1023.6 hPa 50.5 mm 19.5°
1
2%
20:00
25°
1023.9 hPa 50.5 mm 20.7°
1
3%
23:00
22°
1024.1 hPa 50.5 mm 18.3°
1
1%
 05:12     21:09    Daglengte: 15:57 Woensdag 26 Jun
02:00
19°
1024.1 hPa 50.5 mm 15.9°
2
0%
05:00
21°
1023.8 hPa 50.5 mm 16.8°
2
1%
08:00
23°
1023.4 hPa 50.5 mm 18.2°
2
2%
11:00
28°
1022.6 hPa 50.5 mm 18.0°
2
1%
14:00
32°
Voelt als: 31.4°
1021.8 hPa 50.5 mm 15.3°
1
0%
17:00
30°
1021.6 hPa 50.5 mm 20.9°
1
1%
20:00
27°
1021.6 hPa 50.5 mm 24.0°
0
3%
23:00
24°
1021.7 hPa 50.5 mm 21.0°
1
1%
 05:13     21:09    Daglengte: 15:56 Donderdag 27 Jun
02:00
21°
1021.6 hPa 50.5 mm 18.1°
1
0%
05:00
23°
1021.4 hPa 50.5 mm 19.2°
1
0%
08:00
25°
1021.2 hPa 50.5 mm 21.0°
1
0%
11:00
28°
1020.9 hPa   21.0°
1
6%
14:00
30°
1020.5 hPa 101.0 mm 19.8°
2
11%
20:00
26°
1019.8 hPa 101.0 mm 22.6°
1
0%
 05:13     21:09    Daglengte: 15:56 Vrijdag 28 Jun
02:00
20°
1020.2 hPa 101.0 mm 16.0°
1
0%
08:00
25°
1019.3 hPa 101.0 mm 18.7°
1
5%
14:00
33°
1017.5 hPa 101.0 mm 16.6°
2
0%
20:00
28°
1016.1 hPa 101.0 mm 24.2°
0
1%
 05:14     21:09    Daglengte: 15:55 Zaterdag 29 Jun
02:00
22°
1015.9 hPa 101.4 mm 17.7°
1
0%
08:00
25°
1013.9 hPa 102.7 mm 22.2°
1
1%
14:00
30°
1013.1 hPa 105.8 mm 22.0°
2
1%
20:00
24°
1014.8 hPa 120.6 mm 21.7°
1
1%
 05:14     21:09    Daglengte: 15:55 Zondag 30 Jun
02:00
20°
1016.9 hPa 130.3 mm 19.9°
2
1%
08:00
22°
1016.0 hPa 1.3 mm 17.5°
1
34%
14:00
28°
1014.4 hPa 1.7 mm 17.4°
1
28%
20:00
24°
1014.6 hPa 2.2 mm 20.0°
1
37%
 05:15     21:09    Daglengte: 15:54 Maandag 01 Jul
02:00
17°
1015.7 hPa 1.5 mm 14.6°
1
40%
08:00
21°
1015.1 hPa 1.1 mm 17.3°
1
40%
14:00
26°
1013.2 hPa 2.2 mm 17.5°
2
40%
20:00
21°
1013.4 hPa 4.8 mm 18.2°
1
58%
 05:16     21:09    Daglengte: 15:53 Dinsdag 02 Jul
02:00
16°
1014.0 hPa 3.8 mm 14.6°
1
60%
08:00
18°
1013.7 hPa 4.4 mm 15.5°
1
60%
14:00
22°
1012.7 hPa 4.1 mm 15.6°
2
59%
20:00
19°
1013.0 hPa 3.4 mm 16.2°
1
60%
 05:16     21:08    Daglengte: 15:52 Woensdag 03 Jul
02:00
14°
1013.9 hPa 3.6 mm 12.9°
0
66%
08:00
16°
1013.7 hPa 3.0 mm 14.0°
1
63%
14:00
20°
1012.8 hPa 3.5 mm 14.8°
1
64%
20:00
18°
1013.0 hPa 5.8 mm 15.4°
1
72%
 05:17     21:08    Daglengte: 15:51 Donderdag 04 Jul
02:00
13°
1014.4 hPa 5.4 mm 12.3°
1
67%
08:00
15°
1015.0 hPa 2.5 mm 13.4°
1
57%
14:00
20°
1013.9 hPa 2.3 mm 13.9°
1
58%
20:00
18°
1014.2 hPa 2.1 mm 15.0°
1
54%
 05:18     21:08    Daglengte: 15:50 Vrijdag 05 Jul
02:00
13°
1015.9 hPa 3.6 mm 11.8°
1
53%
08:00
16°
1016.4 hPa 1.9 mm 13.4°
1
54%
  CAPE Lifted Index Hail Supercell Tornado SRH 3km CL BTM PRES CL TOP PRES Swiss DWD icon SMHI TS
 05:11     21:09    Daglengte: 15:58 Vandaag
12:00 523 J/kg -2.1 K 0 % 0 % 0 % 0 m²/s² 0 0 -0.93 1
13:00 225 J/kg -1.6 K 0 % 0 % 0 % 0 m²/s² 0 0 -0.1 0
14:00 116 J/kg -1.2 K 0 % 0 % 0 % 0 m²/s² 0 0 -0.39 1
15:00 0 J/kg -0.1 K 0 % 0 % 0 % 0 m²/s² 0 0 0.89 3
16:00 0 J/kg 0.7 K 0 % 0 % 0 % 0 m²/s² 0 0 2.02 80
17:00 0 J/kg 0.5 K 0 % 0 % 0 % 0 m²/s² 0 0 1.4 80
18:00 124 J/kg -0.9 K 0 % 0 % 0 % 0 m²/s² 0 0 -0.15 95
19:00 152 J/kg -0.9 K 0 % 0 % 0 % 0 m²/s² 0 0 -0.27 95
20:00 141 J/kg -1.0 K 0 % 0 % 0 % 0 m²/s² 0 0 0.05 3
21:00 113 J/kg -0.6 K 0 % 0 % 0 % 0 m²/s² 0 0 0.39 3
22:00 1 J/kg -0.3 K 0 % 0 % 0 % 0 m²/s² 0 0 1.41 80
23:00 0 J/kg 0.2 K 0 % 0 % 0 % 0 m²/s² 0 0 1.79 2
 05:11     21:09    Daglengte: 15:58 Morgen
00:00 0 J/kg 0.3 K 0 % 0 % 0 % 0 m²/s² 0 0 2.76 2
01:00 0 J/kg 0.8 K 0 % 0 % 0 % 0 m²/s² 0 0 3.32 45
02:00 0 J/kg 0.7 K 0 % 0 % 0 % 0 m²/s² 0 0 3.31 3
03:00 0 J/kg 0.6 K 0 % 0 % 0 % 0 m²/s² 0 0 3 2
04:00 0 J/kg 0.4 K 0 % 0 % 0 % 0 m²/s² 0 0 2.5 2
05:00 0 J/kg 0.4 K 0 % 0 % 0 % 0 m²/s² 0 0 2.92 3
06:00 0 J/kg 0.4 K 0 % 0 % 0 % 0 m²/s² 0 0 3.07 2
07:00 0 J/kg 0.4 K 0 % 0 % 0 % 0 m²/s² 0 0 3.25 3
08:00 0 J/kg 0.4 K 0 % 0 % 0 % 0 m²/s² 0 0 3.16 3
09:00 0 J/kg 0.5 K 0 % 0 % 0 % 0 m²/s² 0 0 3.17 3
10:00 43 J/kg -0.1 K 0 % 0 % 0 % 0 m²/s² 0 0 2.27 80
11:00 236 J/kg -1.2 K 0 % 0 % 0 % 0 m²/s² 0 0 0.63 80
12:00 393 J/kg -1.7 K 0 % 0 % 0 % 0 m²/s² 0 0 -0.05 3
13:00 497 J/kg -1.7 K 0 % 0 % 0 % 0 m²/s² 0 0 -0.53 3
14:00 750 J/kg -2.9 K 0 % 0 % 0 % 0 m²/s² 0 0 -2.42 3
15:00 579 J/kg -3.0 K 0 % 0 % 0 % 0 m²/s² 0 0 -2.64 80
16:00 133 J/kg -0.2 K 0 % 0 % 0 % 0 m²/s² 0 0 0.37 3
17:00 3 J/kg 0.6 K 0 % 0 % 0 % 0 m²/s² 0 0 0.63 3
18:00 169 J/kg -0.9 K 0 % 0 % 0 % 0 m²/s² 0 0 -0.9 3
19:00 0 J/kg 0.0 K 0 % 0 % 0 % 0 m²/s² 0 0 0 3
20:00 0 J/kg 0.2 K 0 % 0 % 0 % 0 m²/s² 0 0 0.2 3
21:00 0 J/kg 0.2 K 0 % 0 % 0 % 0 m²/s² 0 0 0.59 3
22:00 0 J/kg 0.0 K 0 % 0 % 0 % 0 m²/s² 0 0 0.57 3
23:00 0 J/kg 0.0 K 0 % 0 % 0 % 0 m²/s² 0 0 0.12 2
 05:11     21:09    Daglengte: 15:58 Zaterdag 22 Jun
00:00 0 J/kg 0.2 K 0 % 0 % 0 % 0 m²/s² 0 0 0.38 2
01:00 0 J/kg 0.2 K 0 % 0 % 0 % 0 m²/s² 0 0 0.83 3
02:00 0 J/kg 0.6 K 0 % 0 % 0 % 0 m²/s² 0 0 1.56 3
03:00 0 J/kg -0.1 K 0 % 0 % 0 % 0 m²/s² 0 0 1.28 3
04:00 0 J/kg -0.4 K 0 % 0 % 0 % 0 m²/s² 0 0 0.62 2
05:00 0 J/kg -0.9 K 0 % 0 % 0 % 0 m²/s² 0 0 0.21 1
06:00 0 J/kg -1.4 K 0 % 0 % 0 % 0 m²/s² 0 0 0.1 2
07:00 3 J/kg -1.8 K 0 % 0 % 0 % 0 m²/s² 0 0 0.06 2
08:00 162 J/kg -1.7 K 0 % 0 % 0 % 0 m²/s² 0 0 -0.26 3
09:00 585 J/kg -2.8 K 0 % 0 % 0 % 0 m²/s² 0 0 -1.48 2
10:00 923 J/kg -3.9 K 0 % 0 % 0 % 0 m²/s² 0 0 -2.79 1
11:00 1162 J/kg -4.4 K 0 % 0 % 0 % 0 m²/s² 0 0 -3.59 2
12:00 1502 J/kg -5.5 K 0 % 0 % 0 % 0 m²/s² 0 0 -5.14 2
13:00 1967 J/kg -6.4 K 0 % 0 % 0 % 0 m²/s² 0 0 -6.1 3
14:00 1453 J/kg -4.9 K 0 % 0 % 0 % 0 m²/s² 0 0 -4.27 3
15:00 1154 J/kg -3.6 K 0 % 0 % 0 % 0 m²/s² 0 0 -2.34 80
16:00 905 J/kg -4.1 K 0 % 0 % 0 % 0 m²/s² 0 0 -3.98 3
17:00 253 J/kg -3.9 K 0 % 0 % 0 % 0 m²/s² 0 0 -3.09 3
18:00 65 J/kg -2.9 K 0 % 0 % 0 % 0 m²/s² 0 0 -2.72 3
19:00 31 J/kg -0.2 K 0 % 0 % 0 % 0 m²/s² 0 0 0.76 3
20:00 205 J/kg -1.8 K 0 % 0 % 0 % 0 m²/s² 0 0 -1.32 3
21:00 80 J/kg -0.4 K 0 % 0 % 0 % 0 m²/s² 0 0 0.56 3
22:00 1 J/kg -0.9 K 0 % 0 % 0 % 0 m²/s² 0 0 -0.03 3
23:00 1 J/kg -0.6 K 0 % 0 % 0 % 0 m²/s² 0 0 0.06 3
 05:11     21:09    Daglengte: 15:58 Zondag 23 Jun
00:00 1 J/kg -0.4 K 0 % 0 % 0 % 0 m²/s² 0 0 0.62 80
01:00 0 J/kg 0.7 K 0 % 0 % 0 % 0 m²/s² 0 0 1.45 80
02:00 0 J/kg 0.8 K 0 % 0 % 0 % 0 m²/s² 0 0 1.67 95
03:00 0 J/kg 1.3 K 0 % 0 % 0 % 0 m²/s² 0 0 2.05 80
04:00 0 J/kg 1.4 K 0 % 0 % 0 % 0 m²/s² 0 0 2.36 80
05:00 2 J/kg 1.6 K 0 % 0 % 0 % 0 m²/s² 0 0 2.26 80
06:00 0 J/kg 1.2 K 0 % 0 % 0 % 0 m²/s² 0 0 1.92 45
07:00 1 J/kg 1.1 K 0 % 0 % 0 % 0 m²/s² 0 0 1.55 45
08:00 28 J/kg 1.8 K 0 % 0 % 0 % 0 m²/s² 0 0 2.28 45
09:00 53 J/kg 2.1 K 0 % 0 % 0 % 0 m²/s² 0 0 2.82
10:00 126 J/kg 1.7 K 0 % 0 % 0 % 0 m²/s² 0 0 2.24
11:00 157 J/kg 0.9 K 0 % 0 % 0 % 0 m²/s² 0 0 1.29
Temp Baro Wind Neerslag
  EWN Forecast EWN WRFDA DWD ICON FMI HIRLAM MET Norway GFS
 05:11     21:09    Daglengte: 15:58 Vandaag
14:00 25.0° 1012.9 hPa 1.9 m/s 0.0 mm 19.9° 1014.5 hPa 2.3 m/s 0.1 mm 23.9° 1012.7 hPa 1.8 m/s -1.6 mm 31.5° 1011.9 hPa 1.9 m/s 0.0 mm 25.8° 1012.8 hPa 1.8 m/s 0.0 mm 23.5° 1012.8 hPa 2.2 m/s
17:00 21.0° 1013.4 hPa 1.2 m/s 6.4 mm 18.8° 1013.0 hPa 3.6 m/s 18.5 mm 18.8° 1014.1 hPa 1.2 m/s 2.4 mm 24.8° 1012.0 hPa 1.3 m/s 0.0 mm 20.7° 1014.0 hPa 0.1 m/s 6.9 mm 21.0° 1013.3 hPa 2.5 m/s
20:00 19.1° 1014.9 hPa 0.9 m/s 7.7 mm 19.6° 1014.4 hPa 2.4 m/s 23.5 mm 16.8° 1015.7 hPa 0.6 m/s 5.7 mm 21.0° 1013.3 hPa 0.4 m/s 0.0 mm 18.4° 1015.9 hPa 0.9 m/s 3.4 mm 17.4° 1014.6 hPa 0.2 m/s
23:00 16.8° 1016.3 hPa 1.1 m/s 7.8 mm 15.1° 1014.8 hPa 2.9 m/s 24.1 mm 15.5° 1016.3 hPa 1.3 m/s 1.8 mm 19.2° 1015.7 hPa 0.9 m/s 0.0 mm 16.5° 1017.2 hPa 0.8 m/s 0.7 mm 15.5° 1016.3 hPa 1.5 m/s
 05:11     21:09    Daglengte: 15:58 Morgen
02:00 16.6° 1017.0 hPa 1.3 m/s 8.0 mm 14.9° 1014.9 hPa 3.1 m/s 24.2 mm 14.4° 1017.2 hPa 0.9 m/s 0.0 mm 18.2° 1016.4 hPa 1.6 m/s 0.0 mm 16.7° 1017.3 hPa 0.8 m/s 0.7 mm 14.6° 1017.2 hPa 1.5 m/s
05:00 14.8° 1017.2 hPa 1.4 m/s 0.0 mm 14.7° 1015.0 hPa 3.4 m/s 24.2 mm 14.3° 1017.5 hPa 1.5 m/s 0.1 mm 17.2° 1017.5 hPa 1.2 m/s 0.0 mm 13.7° 1017.4 hPa 0.7 m/s 0.0 mm 14.4° 1017.1 hPa 1.4 m/s
08:00 17.7° 1018.0 hPa 0.5 m/s 0.0 mm 18.7° 1015.5 hPa 1.2 m/s 24.2 mm 16.7° 1017.8 hPa 0.3 m/s 0.0 mm 17.5° 1018.7 hPa 0.4 m/s 0.0 mm 18.9° 1018.3 hPa 0.4 m/s 0.0 mm 18.6° 1017.6 hPa 0.3 m/s
11:00 20.0° 1018.2 hPa 1.0 m/s 5.4 mm 21.7° 1016.3 hPa 2.1 m/s 24.2 mm 18.7° 1018.1 hPa 1.2 m/s 0.8 mm 19.6° 1018.8 hPa 0.0 m/s 0.0 mm 21.9° 1018.4 hPa 1.1 m/s 0.0 mm 22.4° 1017.3 hPa 2.0 m/s
14:00 22.9° 1017.4 hPa 1.1 m/s 3.7 mm 23.9° 1015.1 hPa 3.1 m/s 24.2 mm 19.9° 1018.0 hPa 1.3 m/s 0.3 mm 26.2° 1016.9 hPa 0.4 m/s 0.0 mm 23.0° 1017.6 hPa 0.7 m/s 0.8 mm 23.9° 1016.4 hPa 1.8 m/s
17:00 21.0° 1017.2 hPa 0.8 m/s 8.7 mm 17.2° 1016.8 hPa 2.7 m/s 45.5 mm 19.6° 1017.3 hPa 0.4 m/s 0.6 mm 28.7° 1015.0 hPa 0.8 m/s 0.0 mm 21.2° 1017.5 hPa 0.4 m/s 4.1 mm 22.1° 1015.9 hPa 1.4 m/s
20:00 19.2° 1018.1 hPa 0.9 m/s 13.8 mm 17.9° 1016.0 hPa 3.1 m/s 74.4 mm 18.4° 1018.1 hPa 0.4 m/s 0.3 mm 24.6° 1015.5 hPa 2.2 m/s 0.0 mm 19.0° 1018.7 hPa 0.6 m/s 2.0 mm 17.9° 1016.5 hPa 0.7 m/s
23:00 17.4° 1019.1 hPa 1.0 m/s 10.8 mm 17.4° 1017.7 hPa 3.3 m/s 76.4 mm 16.0° 1018.8 hPa 1.2 m/s 0.0 mm 17.9° 1017.2 hPa 0.4 m/s 0.0 mm 17.5° 1019.8 hPa 0.9 m/s 2.1 mm 16.9° 1018.1 hPa 0.7 m/s
 05:11     21:09    Daglengte: 15:58 Zaterdag 22 Jun
02:00 16.1° 1018.6 hPa 0.8 m/s 0.0 mm 15.2° 1015.6 hPa 2.6 m/s 86.0 mm 14.3° 1018.9 hPa 1.5 m/s 0.0 mm 16.1° 1015.9 hPa 1.2 m/s 0.0 mm 17.1° 1019.2 hPa 0.1 m/s 2.0 mm 16.4° 1018.0 hPa 0.5 m/s
05:00 15.0° 1018.4 hPa 0.7 m/s 0.0 mm 15.2° 1014.2 hPa 2.7 m/s 86.2 mm 13.4° 1018.7 hPa 1.5 m/s 0.0 mm 15.1° 1018.8 hPa 0.4 m/s 1.1 mm 16.2° 1017.1 hPa 0.1 m/s
08:00 17.8° 1018.2 hPa 0.7 m/s 0.0 mm 20.4° 1014.9 hPa 0.6 m/s 86.2 mm 16.9° 1018.0 hPa 0.7 m/s 0.0 mm 17.9° 1019.0 hPa 0.8 m/s 0.0 mm 17.8° 1017.1 hPa 0.4 m/s
11:00 20.7° 1016.7 hPa 1.3 m/s 9.9 mm 24.3° 1014.1 hPa 2.8 m/s 86.2 mm 20.9° 1016.5 hPa 1.0 m/s 0.0 mm 19.3° 1018.0 hPa 0.9 m/s 21.1° 1015.8 hPa 1.3 m/s
14:00 21.4° 1015.7 hPa 1.6 m/s 30.0 mm 24.2° 1012.4 hPa 2.8 m/s 86.8 mm 22.6° 1014.5 hPa 1.5 m/s 0.0 mm 20.7° 1017.0 hPa 0.9 m/s 21.3° 1015.1 hPa 1.6 m/s
17:00 19.8° 1015.3 hPa 1.2 m/s 19.7 mm 19.3° 1013.2 hPa 5.9 m/s 89.9 mm 20.3° 1014.3 hPa 0.6 m/s 1.7 mm 19.6° 1016.5 hPa 0.7 m/s 19.3° 1014.4 hPa 1.0 m/s
20:00 18.6° 1015.3 hPa 0.9 m/s 23.1 mm 18.7° 1014.1 hPa 2.5 m/s 103.0 mm 19.4° 1014.4 hPa 0.7 m/s 0.1 mm 18.6° 1016.0 hPa 0.5 m/s 17.3° 1015.1 hPa 0.8 m/s
23:00 17.2° 1016.1 hPa 0.8 m/s 32.5 mm 16.6° 1014.9 hPa 1.6 m/s 110.7 mm 17.2° 1014.6 hPa 0.6 m/s 0.8 mm 17.6° 1016.5 hPa 0.6 m/s 16.0° 1016.0 hPa 1.1 m/s
 05:11     21:09    Daglengte: 15:58 Zondag 23 Jun
02:00 16.1° 1016.6 hPa 1.3 m/s 29.1 mm 15.6° 1013.8 hPa 3.1 m/s 113.0 mm 15.9° 1016.1 hPa 1.2 m/s 2.4 mm 16.6° 1017.0 hPa 0.7 m/s 15.9° 1016.3 hPa 0.6 m/s
05:00 16.2° 1017.3 hPa 0.9 m/s 39.2 mm 15.6° 1015.2 hPa 2.4 m/s 113.5 mm 15.1° 1017.4 hPa 0.4 m/s 2.1 mm 17.0° 1017.5 hPa 0.8 m/s 15.8° 1017.1 hPa 0.3 m/s
08:00 17.2° 1017.9 hPa 1.0 m/s 25.7 mm 18.0° 1015.3 hPa 2.9 m/s 114.2 mm 15.7° 1018.8 hPa 0.6 m/s 0.5 mm 17.4° 1018.1 hPa 0.8 m/s 15.8° 1018.1 hPa 0.7 m/s
11:00 18.3° 1018.5 hPa 1.4 m/s 115.4 mm 19.6° 1016.5 hPa 3.5 m/s 115.4 mm 18.1° 1018.9 hPa 1.1 m/s 16.7° 1018.5 hPa 0.6 m/s
14:00 19.2° 1019.3 hPa 1.6 m/s 116.8 mm 21.3° 1017.2 hPa 3.5 m/s 116.8 mm 18.8° 1019.6 hPa 1.3 m/s 21.8° 1018.5 hPa 1.3 m/s
17:00 19.0° 1020.6 hPa 1.1 m/s 50.4 mm 18.6° 1020.8 hPa 1.0 m/s 22.9° 1018.2 hPa 2.3 m/s 50.4 mm
20:00 18.6° 1021.3 hPa 0.9 m/s 50.5 mm 18.5° 1021.4 hPa 0.8 m/s 20.0° 1019.9 hPa 1.4 m/s 50.5 mm
23:00 17.1° 1022.0 hPa 0.8 m/s 50.5 mm 17.2° 1022.0 hPa 0.8 m/s 16.0° 1022.4 hPa 0.8 m/s 50.5 mm
 05:12     21:09    Daglengte: 15:57 Maandag 24 Jun
02:00 15.8° 1022.5 hPa 0.8 m/s 50.5 mm 15.9° 1022.5 hPa 0.8 m/s 15.2° 1022.6 hPa 1.3 m/s 50.5 mm
05:00 17.0° 1022.7 hPa 0.8 m/s 50.5 mm 17.2° 1022.8 hPa 0.8 m/s 14.6° 1022.1 hPa 1.3 m/s 50.5 mm
08:00 18.7° 1023.1 hPa 0.7 m/s 50.5 mm 18.6° 1023.1 hPa 0.7 m/s 19.7° 1022.6 hPa 0.7 m/s 50.5 mm
11:00 21.8° 1022.8 hPa 1.2 m/s 50.5 mm 21.5° 1022.9 hPa 1.2 m/s 25.7° 1022.0 hPa 1.7 m/s 50.5 mm
14:00 24.6° 1022.5 hPa 1.8 m/s 50.5 mm 24.3° 1022.6 hPa 1.7 m/s 28.1° 1021.2 hPa 2.4 m/s 50.5 mm
17:00 23.7° 1022.9 hPa 1.3 m/s 50.5 mm 23.4° 1023.0 hPa 1.2 m/s 27.3° 1021.0 hPa 2.5 m/s 50.5 mm
20:00 22.5° 1023.4 hPa 0.7 m/s 50.5 mm 22.4° 1023.5 hPa 0.7 m/s 23.1° 1022.3 hPa 1.2 m/s 50.5 mm
23:00 19.4° 1024.0 hPa 0.9 m/s 50.5 mm 19.4° 1024.0 hPa 0.9 m/s 18.8° 1024.8 hPa 1.2 m/s 50.5 mm
 05:12     21:09    Daglengte: 15:57 Dinsdag 25 Jun
02:00 16.6° 1024.4 hPa 1.1 m/s 50.5 mm 16.5° 1024.4 hPa 1.1 m/s 17.8° 1024.8 hPa 1.5 m/s 50.5 mm
05:00 18.3° 1024.5 hPa 0.9 m/s 50.5 mm 18.4° 1024.5 hPa 0.9 m/s 16.7° 1024.3 hPa 1.5 m/s 50.5 mm
08:00 20.5° 1024.6 hPa 0.7 m/s 50.5 mm 20.4° 1024.6 hPa 0.7 m/s 21.7° 1024.7 hPa 0.7 m/s 50.5 mm
11:00 24.2° 1024.0 hPa 1.5 m/s 50.5 mm 23.9° 1024.0 hPa 1.5 m/s 28.2° 1023.8 hPa 1.6 m/s 50.5 mm
14:00 27.6° 1023.4 hPa 2.2 m/s 50.5 mm 27.3° 1023.4 hPa 2.2 m/s 30.7° 1023.3 hPa 2.2 m/s 50.5 mm
17:00 26.2° 1023.6 hPa 1.5 m/s 50.5 mm 26.0° 1023.6 hPa 1.4 m/s 29.4° 1023.0 hPa 2.5 m/s 50.5 mm
20:00 24.6° 1023.9 hPa 0.7 m/s 50.5 mm 24.6° 1023.8 hPa 0.6 m/s 24.2° 1024.4 hPa 1.2 m/s 50.5 mm
23:00 21.8° 1024.1 hPa 1.1 m/s 50.5 mm 22.0° 1023.8 hPa 1.1 m/s 19.5° 1026.8 hPa 1.1 m/s 50.5 mm
 05:12     21:09    Daglengte: 15:57 Woensdag 26 Jun
02:00 19.3° 1024.1 hPa 1.7 m/s 50.5 mm 19.4° 1023.9 hPa 1.7 m/s 18.3° 1026.9 hPa 1.4 m/s 50.5 mm
05:00 20.9° 1023.8 hPa 1.9 m/s 50.5 mm 21.2° 1023.5 hPa 2.0 m/s 17.3° 1026.6 hPa 1.5 m/s 50.5 mm
08:00 23.1° 1023.4 hPa 2.1 m/s 50.5 mm 23.1° 1023.2 hPa 2.2 m/s 23.0° 1026.1 hPa 0.6 m/s 50.5 mm
11:00 27.6° 1022.6 hPa 1.6 m/s 50.5 mm 27.4° 1022.4 hPa 1.7 m/s 29.4° 1024.9 hPa 1.3 m/s 50.5 mm
14:00 31.7° 1021.8 hPa 1.2 m/s 50.5 mm 31.7° 1021.6 hPa 1.1 m/s 31.4° 1023.6 hPa 2.3 m/s 50.5 mm
17:00 29.6° 1021.6 hPa 0.9 m/s 50.5 mm 29.5° 1021.5 hPa 0.8 m/s 30.6° 1022.4 hPa 2.2 m/s 50.5 mm
20:00 27.2° 1021.6 hPa 0.4 m/s 50.5 mm 27.4° 1021.5 hPa 0.4 m/s 24.9° 1022.9 hPa 0.6 m/s 50.5 mm
23:00 24.2° 1021.7 hPa 0.8 m/s 50.5 mm 24.5° 1021.5 hPa 0.8 m/s 20.3° 1024.3 hPa 1.4 m/s 50.5 mm
 05:13     21:09    Daglengte: 15:56 Donderdag 27 Jun
02:00 21.4° 1021.6 hPa 1.1 m/s 50.5 mm 21.6° 1021.4 hPa 1.1 m/s 19.2° 1023.9 hPa 1.3 m/s 50.5 mm
05:00 23.0° 1021.4 hPa 0.9 m/s 50.5 mm 23.5° 1021.2 hPa 0.9 m/s 18.2° 1022.9 hPa 1.5 m/s 50.5 mm
08:00 25.2° 1021.2 hPa 0.6 m/s 50.5 mm 25.3° 1021.1 hPa 0.6 m/s 23.7° 1022.4 hPa 0.2 m/s 50.5 mm
11:00 28.0° 1020.9 hPa 1.3 m/s 50.5 mm 27.9° 1020.9 hPa 1.3 m/s 29.3° 1021.2 hPa 1.6 m/s 50.5 mm
14:00 30.5° 1020.5 hPa 2.0 m/s 50.5 mm 30.4° 1020.6 hPa 2.0 m/s 31.3° 1019.7 hPa 2.5 m/s 50.5 mm
20:00 26.5° 1019.8 hPa 0.5 m/s 50.5 mm 26.6° 1019.9 hPa 0.5 m/s 25.0° 1019.2 hPa 0.7 m/s 50.5 mm
 05:13     21:09    Daglengte: 15:56 Vrijdag 28 Jun
02:00 20.3° 1020.2 hPa 1.2 m/s 50.5 mm 20.3° 1020.3 hPa 1.1 m/s 19.7° 1019.7 hPa 1.8 m/s 50.5 mm
08:00 24.6° 1019.3 hPa 1.3 m/s 50.5 mm 24.6° 1019.5 hPa 1.3 m/s 24.3° 1017.5 hPa 1.3 m/s 50.5 mm
14:00 32.7° 1017.5 hPa 1.7 m/s 50.5 mm 32.6° 1017.8 hPa 1.7 m/s 34.3° 1014.1 hPa 1.8 m/s 50.5 mm
20:00 27.9° 1016.1 hPa 0.3 m/s 50.5 mm 27.9° 1016.4 hPa 0.2 m/s 28.0° 1013.1 hPa 1.4 m/s 50.5 mm
 05:14     21:09    Daglengte: 15:55 Zaterdag 29 Jun
02:00 22.1° 1015.9 hPa 1.4 m/s 50.9 mm 22.2° 1016.0 hPa 1.3 m/s 20.9° 1014.8 hPa 3.0 m/s 50.9 mm
08:00 24.5° 1013.9 hPa 1.4 m/s 51.6 mm 24.5° 1013.9 hPa 1.4 m/s 51.6 mm
14:00 30.2° 1013.1 hPa 2.2 m/s 53.8 mm 30.2° 1013.1 hPa 2.2 m/s 53.8 mm
20:00 23.8° 1014.8 hPa 1.2 m/s 62.2 mm 23.8° 1014.8 hPa 1.2 m/s 62.2 mm
 05:14     21:09    Daglengte: 15:55 Zondag 30 Jun
02:00 20.0° 1016.9 hPa 1.5 m/s 67.0 mm 20.0° 1016.9 hPa 1.5 m/s 67.0 mm
08:00 21.9° 1016.0 hPa 1.0 m/s 1.3 mm
14:00 28.5° 1014.4 hPa 1.3 m/s 1.7 mm
20:00 24.4° 1014.6 hPa 1.0 m/s 2.2 mm
 05:15     21:09    Daglengte: 15:54 Maandag 01 Jul
02:00 17.1° 1015.7 hPa 1.4 m/s 1.5 mm
08:00 20.7° 1015.1 hPa 0.8 m/s 1.1 mm
14:00 25.7° 1013.2 hPa 1.7 m/s 2.2 mm
20:00 21.4° 1013.4 hPa 1.4 m/s 4.8 mm
 05:16     21:09    Daglengte: 15:53 Dinsdag 02 Jul
02:00 15.9° 1014.0 hPa 0.9 m/s 3.8 mm
08:00 17.7° 1013.7 hPa 1.0 m/s 4.4 mm
14:00 21.6° 1012.7 hPa 1.7 m/s 4.1 mm
20:00 19.1° 1013.0 hPa 1.5 m/s 3.4 mm
 05:16     21:08    Daglengte: 15:52 Woensdag 03 Jul
02:00 13.8° 1013.9 hPa 0.5 m/s 3.6 mm
08:00 16.0° 1013.7 hPa 0.7 m/s 3.0 mm
14:00 19.7° 1012.8 hPa 1.3 m/s 3.5 mm
20:00 17.6° 1013.0 hPa 0.9 m/s 5.8 mm
 05:17     21:08    Daglengte: 15:51 Donderdag 04 Jul
02:00 13.3° 1014.4 hPa 1.0 m/s 5.4 mm
08:00 15.3° 1015.0 hPa 0.7 m/s 2.5 mm
14:00 20.2° 1013.9 hPa 1.2 m/s 2.3 mm
20:00 18.3° 1014.2 hPa 1.2 m/s 2.1 mm <